This is the latest recevied weather packets stored in our database for station/object OK1KZE-6. If no packets are shown the sender has not sent any weather packets the latest 1 day(s).
| Time | Temp. | Humidity | Pressure | Rain* | Wind** | Luminosity | Snow |
|---|---|---|---|---|---|---|---|
| 1777979707 | -1.11° C | 100% | 1010.1 hPa | - | 0 m/s | - | - |
| 1777979408 | 20.56° C | 51% | 1010.2 hPa | - | 7.15 m/s, 58° | - | - |
| 1777979108 | 20.56° C | 51% | 1010.3 hPa | - | 7.15 m/s, 58° | - | - |
| 1777978808 | 21.11° C | 51% | 1010.2 hPa | - | 5.36 m/s, 79° | - | - |
| 1777978507 | 21.11° C | 51% | 1010.4 hPa | - | 5.36 m/s, 79° | - | - |
| 1777977908 | 20° C | 53% | 1010 hPa | - | 8.49 m/s, 53° | - | - |
| 1777977607 | 20° C | 53% | 1010.3 hPa | - | 8.49 m/s, 53° | - | - |
| 1777977308 | 20.56° C | 53% | 1010.3 hPa | - | 8.05 m/s, 61° | - | - |
| 1777977007 | 20.56° C | 54% | 1010.2 hPa | - | 6.26 m/s, 84° | - | - |
| 1777976707 | 20.56° C | 54% | 1010.4 hPa | - | 6.26 m/s, 84° | - | - |
| 1777976108 | 20° C | 54% | 1010.5 hPa | - | 6.26 m/s, 89° | - | - |
| 1777975807 | 20° C | 53% | 1010.4 hPa | - | 5.81 m/s, 86° | - | - |
| 1777975507 | 20° C | 54% | 1010.3 hPa | - | 8.49 m/s, 97° | - | - |
| 1777975208 | 20° C | 56% | 1010.3 hPa | - | 8.05 m/s, 92° | - | - |
| 1777974608 | 20° C | 56% | 1010.5 hPa | - | 7.6 m/s, 85° | - | - |
| 1777974307 | 20° C | 58% | 1010.5 hPa | - | 6.26 m/s, 88° | - | - |
| 1777974007 | 18.89° C | 58% | 1010.5 hPa | - | 5.36 m/s, 78° | - | - |
| 1777973708 | 19.44° C | 57% | 1010.6 hPa | - | 7.6 m/s, 71° | - | - |
| 1777973108 | 18.89° C | 60% | 1010.7 hPa | - | 8.05 m/s, 77° | - | - |
| 1777972807 | 18.89° C | 60% | 1010.6 hPa | - | 7.15 m/s, 76° | - | - |
| 1777972508 | 19.44° C | 61% | 1010.7 hPa | - | 8.05 m/s, 83° | - | - |
| 1777972207 | 19.44° C | 63% | 1011 hPa | - | 6.26 m/s, 80° | - | - |
| 1777971908 | 19.44° C | 62% | 1010.8 hPa | - | 7.15 m/s, 75° | - | - |
| 1777971608 | 19.44° C | 64% | 1011 hPa | - | 6.26 m/s, 85° | - | - |
| 1777971307 | 18.89° C | 63% | 1010.8 hPa | - | 6.71 m/s, 67° | - | - |
* Rain since midnight (hover to see other rain measurements)
** Current wind speed in m/s (hover to see current wind gust speed)